This demonstration page uses our WeatherBlox Daily Observations layout. Learn more.

Hourly Observations for October 14, 2020

Temp ( °F °C ) Dew Point ( °F °C ) Humidity (%) Winds ( mph kmh ) Pressure ( in mb ) Visibility ( mi km ) Precip ( " mm )
12:53 am 00:53 Clear 70 21.1 24 -4.4 18 18 SW 8 13 29.63 1003 10 16.0934 0 0
1:53 am 01:53 Clear 72 22.2 28 -2.2 19 19 W 17 28 29.6 1003 10 16.0934 0 0
2:53 am 02:53 Clear 72 22.2 29 -1.7 20 20 W 16 26 29.6 1002 10 16.0934 0 0
3:53 am 03:53 Clear 73 22.8 28 -2.2 19 19 W 15 24 29.58 1002 10 16.0934 0 0
4:53 am 04:53 Clear 71 21.7 28 -2.2 20 20 W 10 17 29.6 1002 10 16.0934 0 0
5:33 am 05:33 Partly Cloudy 61 16.1 34 1.1 36 36 N 32 52 29.66 1004 9 14.48406 0 0
5:43 am 05:43 Mostly Cloudy 55 12.8 34 1.1 45 45 NNE 29 46 29.72 1007 8 12.87472 0 0
5:53 am 05:53 Mostly Cloudy 53 11.7 35 1.7 51 51 NNE 24 39 29.72 1007 10 16.0934 0 0
6:53 am 06:53 Mostly Clear 50 10 37 2.8 61 61 NNE 8 13 29.8 1009 10 16.0934 0 0
7:53 am 07:53 Sunny 51 10.6 38 3.3 61 61 NNW 7 11 29.83 1010 10 16.0934 0 0
8:53 am 08:53 Mostly Cloudy 54 12.2 39 3.9 57 57 N 13 20 29.86 1011 10 16.0934 0 0
9:51 am 09:51 Cloudy 52 11 39 4 62 62 N 17 28 29.92 1013 10 16.0934 0.001 0.001
9:53 am 09:53 Cloudy 52 11.1 39 3.9 61 61 NNW 20 31 29.91 1013 10 16.0934 0.001 0.001
10:21 am 10:21 Cloudy 51 10.6 37 2.8 59 59 NNW 18 30 29.94 1014 10 16.0934 0 0
10:53 am 10:53 Cloudy with Light Rain 47 8.3 37 2.8 69 69 NNW 18 30 29.93 1014 10 16.0934 0.001 0.001
11:53 am 11:53 Cloudy 47 8.3 37 2.8 69 69 NNW 15 24 29.93 1014 10 16.0934 0.001 0.001
12:45 pm 12:45 Cloudy 48 8.9 36 2.2 63 63 N 15 24 29.99 1016 10 16.0934 0 0
12:53 pm 12:53 Cloudy 47 8.3 36 2.2 66 66 NNW 16 26 29.94 1014 10 16.0934 0 0
1:07 pm 13:07 Cloudy 47 8.3 36 2.2 66 66 N 16 26 30 1016 10 16.0934 0 0
1:27 pm 13:27 Cloudy 46 7.8 35 1.7 66 66 NNW 18 30 30.01 1016 10 16.0934 0 0
1:53 pm 13:53 Cloudy with Light Rain 43 6.1 36 2.2 76 76 NNW 14 22 29.95 1014 10 16.0934 0.001 0.001
2:07 pm 14:07 Cloudy with Light Rain 42 5.6 37 2.8 82 82 NNW 14 22 30.04 1017 10 16.0934 0.001 0.001
2:53 pm 14:53 Cloudy 41 5 38 3.3 89 89 NW 7 11 29.95 1014 10 16.0934 0.02 0.508
3:53 pm 15:53 Cloudy with Light Rain 42 5.6 40 4.4 92 92 WSW 7 11 29.96 1015 9 14.48406 0.01 0.254
4:53 pm 16:53 Cloudy 44 6.7 41 5 89 89 SSW 7 11 29.95 1014 10 16.0934 0.001 0.001
5:53 pm 17:53 Cloudy 44 6.7 40 4.4 85 85 W 7 11 30.01 1016 10 16.0934 0 0
6:53 pm 18:53 Cloudy 43 6.1 39 3.9 86 86 WNW 9 15 30.05 1018 10 16.0934 0 0
7:53 pm 19:53 Mostly Cloudy 40 4.4 38 3.3 93 93 NW 7 11 30.1 1019 10 16.0934 0 0
8:53 pm 20:53 Mostly Clear 40 4.4 37 2.8 89 89 WNW 8 13 30.12 1020 10 16.0934 0 0
9:53 pm 21:53 Partly Cloudy 42 5.6 33 0.6 71 71 NNW 18 30 30.17 1022 10 16.0934 0 0
10:53 pm 22:53 Cloudy 42 5.6 33 0.6 71 71 NW 12 19 30.2 1023 10 16.0934 0 0
11:53 pm 23:53 Cloudy 41 5 34 1.1 76 76 WNW 10 17 30.23 1024 10 16.0934 0 0

Powered by AerisWeather